Weather History for New Castle, PA

Change the Weather History Date:

Friday, February 14, 2014

  Actual Average Record
Temperature  
Mean Temperature 22 °F -  
Max Temperature 29 °F 37 °F 65 °F (1990)
Min Temperature 15 °F 17 °F -16 °F (1934)
Degree Days  
Heating Degree Days 43    
Moisture  
Dew Point 19 °F    
Average Humidity 75    
Maximum Humidity 88    
Minimum Humidity 63    
Precipitation  
Precipitation 0.00 in - - ()
Sea Level Pressure  
Sea Level Pressure 29.64 in    
Wind  
Wind Speed 5 mph (SW)    
Max Wind Speed 15 mph    
Max Gust Speed 23 mph    
Visibility 8 miles    
Events Snow    
Averages and records for this station are not official NWS values.
T = Trace of Precipitation, MM = Missing Value Source: NWS Daily Summary

Daily Weather History Graph

Daily Weather History Graph

Search for Another Location

Airport:

Trip Planner

Search our weather history database for the weather conditions in past years. The results will help you decide how hot, cold, wet, or windy it might be!

Date:

Astronomy

Feb. 14, 2014 Rise Set
Actual Time 7:17 AM EST 5:54 PM EST
Civil Twilight 6:49 AM EST 6:23 PM EST
Nautical Twilight 6:16 AM EST 6:55 PM EST
Astronomical Twilight 5:45 AM EST 7:27 PM EST
Moon 5:57 PM EST (2/14) 6:43 AM EST (2/14)
Length of Visible Light 11h 34m
Length of Day
10h 37m
Full, 100% of the Moon is Illuminated
Feb 14
Full
Feb 14
Full
Feb 22
Last Quarter
Mar 1
New
Mar 8
First Quarter

Hourly Weather History & Observations

Time (EST) Temp. Windchill Dew Point Humidity Pressure Visibility Wind Dir Wind Speed Gust Speed Precip Events Conditions
12:56 AM 19.4 °F - 14.0 °F 80% 29.54 in 10.0 mi Calm Calm - N/A   Overcast
1:56 AM 18.1 °F - 14.0 °F 84% 29.60 in 9.0 mi Calm Calm - N/A   Mostly Cloudy
2:56 AM 15.1 °F - 12.0 °F 88% 29.58 in 9.0 mi Calm Calm - N/A   Mostly Cloudy
3:56 AM 21.2 °F 16.4 °F 12.2 °F 68% 29.47 in 10.0 mi SSW 3.5 mph - N/A   Overcast
4:56 AM 24.1 °F - 14.0 °F 65% 29.56 in 10.0 mi Calm Calm - N/A   Overcast
5:56 AM 25.2 °F - 14.0 °F 63% 29.57 in 10.0 mi Calm Calm - 0.00 in Snow Light Snow
6:56 AM 26.6 °F 21.2 °F 15.8 °F 64% 29.49 in 10.0 mi South 4.6 mph - N/A Snow Light Snow
7:56 AM 27.1 °F 23.2 °F 18.1 °F 69% 29.59 in 9.0 mi SW 3.5 mph - 0.00 in Snow Light Snow
8:19 AM 26.6 °F 20.0 °F 21.2 °F 80% 29.52 in 2.5 mi WSW 5.8 mph - 0.00 in Snow Light Snow
8:35 AM 26.6 °F 20.0 °F 21.2 °F 80% 29.53 in 1.5 mi SW 5.8 mph - 0.00 in Snow Light Snow
8:39 AM 26.6 °F 21.2 °F 23.0 °F 86% 29.53 in 1.8 mi WSW 4.6 mph - 0.00 in Snow Light Snow
8:46 AM 26.6 °F 19.1 °F 23.0 °F 86% 29.53 in 2.5 mi SW 6.9 mph - 0.00 in Snow Light Snow
8:56 AM 28.0 °F 20.8 °F 23.0 °F 81% 29.62 in 5.0 mi SW 6.9 mph - 0.00 in Snow Light Snow
9:03 AM 28.4 °F 22.2 °F 24.8 °F 86% 29.55 in 2.5 mi SW 5.8 mph - 0.00 in Snow Light Snow
9:13 AM 28.4 °F 20.4 °F 24.8 °F 86% 29.55 in 1.8 mi SW 8.1 mph - 0.00 in Snow Light Snow
9:20 AM 28.4 °F 19.7 °F 24.8 °F 86% 29.55 in 2.5 mi WSW 9.2 mph - 0.00 in Snow Light Snow
9:41 AM 26.6 °F 15.7 °F 23.0 °F 86% 29.57 in 3.0 mi West 12.7 mph 23.0 mph 0.00 in Snow Light Snow
9:56 AM 26.6 °F 15.2 °F 21.2 °F 80% 29.58 in 4.0 mi WSW 13.8 mph 23.0 mph N/A Snow Light Snow
10:56 AM 27.1 °F 15.4 °F 20.1 °F 75% 29.70 in 7.0 mi WSW 15.0 mph - 0.00 in   Mostly Cloudy
11:35 AM 26.6 °F 14.7 °F 19.4 °F 74% 29.64 in 10.0 mi WSW 15.0 mph 20.7 mph N/A   Mostly Cloudy
11:56 AM 27.1 °F 16.4 °F 20.1 °F 75% 29.73 in 9.0 mi WSW 12.7 mph 23.0 mph N/A   Overcast
12:56 PM 28.4 °F 17.5 °F 19.4 °F 69% 29.64 in 10.0 mi WSW 13.8 mph 19.6 mph N/A   Overcast
1:56 PM 28.0 °F 17.5 °F 19.0 °F 69% 29.75 in 10.0 mi SW 12.7 mph - N/A   Overcast
2:56 PM 29.1 °F 20.0 °F 19.0 °F 66% 29.75 in 10.0 mi WSW 10.4 mph 18.4 mph N/A   Overcast
3:29 PM 28.4 °F 17.0 °F 17.6 °F 64% 29.67 in 10.0 mi WSW 15.0 mph - N/A   Overcast
3:56 PM 28.4 °F 17.5 °F 17.6 °F 64% 29.67 in 10.0 mi SW 13.8 mph 20.7 mph N/A   Overcast
4:10 PM 28.4 °F 19.1 °F 17.6 °F 64% 29.67 in 10.0 mi SW 10.4 mph - N/A   Overcast
4:56 PM 27.1 °F 19.7 °F 18.1 °F 69% 29.78 in 10.0 mi WSW 6.9 mph - N/A   Overcast
5:56 PM 27.1 °F 23.2 °F 17.1 °F 66% 29.79 in 10.0 mi WSW 3.5 mph - N/A   Mostly Cloudy
6:13 PM 26.6 °F - 17.6 °F 69% 29.70 in 10.0 mi Calm Calm - N/A   Scattered Clouds
6:56 PM 25.2 °F - 17.1 °F 71% 29.78 in 10.0 mi Calm Calm - N/A   Partly Cloudy
7:56 PM 25.2 °F - 17.1 °F 71% 29.78 in 10.0 mi Calm Calm - N/A   Overcast
8:56 PM 24.1 °F - 16.2 °F 72% 29.80 in 10.0 mi Calm Calm - N/A   Partly Cloudy
9:56 PM 24.1 °F - 16.2 °F 72% 29.81 in 10.0 mi Calm Calm - N/A   Clear
10:56 PM 23.0 °F - 17.1 °F 78% 29.81 in 7.0 mi Calm Calm - 0.00 in Snow Light Snow
11:56 PM 23.0 °F - 18.1 °F 82% 29.82 in 7.0 mi Calm Calm - 0.00 in   Scattered Clouds